Regional Weather Roundup
Issued by NWS

Home | Current Version | Previous Version | Text Only | Print | Product List | Glossary On
Versions: 1 2 3 4 5 6 7 8 9 10 11 12 13 14 15 16 17 18 19 20 21 22 23 24 25 26 27 28 29 30 31 32 33 34 35 36 37 38 39 40 41 42 43 44 45 46 47 48 49 50
092
ASUS44 KLIX 260805
RWRLA
LOUISIANA WEATHER ROUNDUP
NATIONAL WEATHER SERVICE NEW ORLEANS LA
200 AM CST WED NOV 26 2014

NOTE: "FAIR" INDICATES FEW OR NO CLOUDS BELOW 12,000 FEET WITH NO
      SIGNIFICANT WEATHER AND/OR OBSTRUCTIONS TO VISIBILITY.
      SKY/WX - SKY CONDITION AND SIGNIFICANT WEATHER.
      TMP - AIR TEMPERATURE.    DP   - DEWPOINT TEMPERATURE.
      RH  - RELATIVE HUMIDITY.  PRES - PRESSURE.
      HX  - HEAT INDEX.         WCI  - WIND CHILL INDEX.

*  THESE STATIONS ARE NOT NWS OR FAA STATIONS AND ARE NOT UNDER
   NWS QUALITY CONTROL.

LAZ040-048-061>063-065-066-069-260900-
SOUTHEAST LOUISIANA

CITY           SKY/WX    TMP DP  RH WIND       PRES   REMARKS
N.O. AUDUBON   NOT AVBL
N.O. INTL ARPT CLEAR     44  33  65 N3        30.21F
N.O. LAKEFRONT CLEAR     49  35  58 N13       30.22F
N.O. DOWNTOWN* FAIR      46  30  53 CALM      30.22S
SLIDELL        CLEAR     35  31  85 CALM      30.21S
BATON ROUGE    CLEAR     34  32  92 CALM      30.21F
BOOTHVILLE     CLEAR     50  33  52 N14       30.21S
BELLE CHASSE   CLEAR     39  33  79 CALM      30.21F
BOGALUSA*        N/A     33  31  92 CALM      30.22S
NEW ROADS*     FAIR      34  33  98 CALM      30.21F
GONZALES*      FAIR      35  35 100 CALM      30.21F
HAMMOND*       CLEAR     34  32  93 CALM      30.23S
HOUMA*         CLEAR     36  33  89 CALM      30.22F
PORT FOURCHON* SUNNY     48  36  61 N12       30.25F

$$

LAZ041-044-053-054-260900-
SOUTHWEST LOUISIANA

CITY           SKY/WX    TMP DP  RH WIND       PRES   REMARKS
LAKE CHARLES   CLEAR     39  37  92 CALM      30.21S
LAFAYETTE      CLEAR     38  35  89 CALM      30.22F
PATTERSON      CLEAR     34  32  93 CALM      30.25S
SALT POINT       N/A     46  38  73 CALM      30.22S
NEW IBERIA     CLEAR     36  34  92 CALM      30.23F
CHENAULT AIRPK CLEAR     39  38  97 CALM      30.22S

$$

LAZ027-028-260900-
CENTRAL LOUISIANA

CITY           SKY/WX    TMP DP  RH WIND       PRES   REMARKS
FORT POLK      PTCLDY    39  35  87 SW2       30.18F
ALEXANDRIA INT CLEAR     36  34  92 SE5       30.17F WCI  32
ALEXANDRIA     CLEAR     33  31  92 CALM      30.19S

$$

LAZ001-002-260900-
NORTHWEST LOUISIANA

CITY           SKY/WX    TMP DP  RH WIND       PRES   REMARKS
SHREVEPORT     MOCLDY    44  35  70 SW7       30.13F
BARKSDALE AFB  MOCLDY    39  34  82 SE6       30.14F WCI  35
DTN SHREVEPORT MOCLDY    46  33  60 SW8       30.14S

$$

LAZ014-016-260900-
NORTHEAST LOUISIANA

CITY           SKY/WX    TMP DP  RH WIND       PRES   REMARKS
MONROE         CLEAR     34  32  92 CALM      30.18S
TALLULAH       CLEAR     32  29  88 CALM      30.18F

$$




USA.gov is the U.S. government's official web portal to all federal, state and local government web resources and services.